2012 PB20
ephemeris date magn radius delta ra dec elong phase
Today4 Sep 202624.51.096 AU0.280 AU17h24m-24°50'100.8°64.7°
2012 PB20 - 2026-09-04
astro.vanbuitenen.nl


 
-1 year
-1 month
-1 day
Now
+1 day
+1 month
+1 year

The interactive orbit chart above shows the body's path through the solar system and its position at the given date. Green and blue lines are shown perpendicular to the ecliptic plane: Green if the path is above the ecliptic plane, blue if it is below. (Left-click and drag to rotate the view; Right-click and drag to move the view; Use scroll wheel to zoom in our out.)

The orbital elements of 2012 PB20 are:

            e (Eccentricity)                : 0.0885253
            a (Semimajor axis)              : 1.0426012
            i (Inclination)                 : 5.92415
            Ω (Longitude of ascending node) : 142.48756
            ω (Argument of perihelion)      : 54.59112
            M (Mean anomaly)                : 40.81278
            Epoch                           : 2026 Jun 09

            L (Longitude of perihelion)     : 196.93366
            B (Latitude of perihelion)      : 4.82551
            P (Orbital period in years)     : 1.06            
        

The light curve chart below shows the estimated development of the minor planet's magnitude.


The all-sky chart below shows the path of the minor planet over the same period as the light curve. The current position is marked yellow.





The following chart shows the path of the minor planet in the next few days. The field of view is optimized for (~10x50) binoculars and finderscopes.




Ephemerides:
Date       Time       RA (2000)    DEC (2000)    delta   radius  elong  phase   PA    magn
2026-09-04 00:00 UT   17 24 17.1   -24 50 54     0.280    1.096  100.8   64.7    93   24.5 
2026-09-04 18:29 UT   17 27 35.1   -25 08 13     0.283    1.097  100.8   64.5    93   24.5 
2026-09-05 00:00 UT   17 28 34.2   -25 13 17     0.283    1.097  100.8   64.5    93   24.5 
2026-09-06 00:00 UT   17 32 50.7   -25 34 47     0.286    1.098  100.8   64.4    92   24.6 
2026-09-07 00:00 UT   17 37 06.8   -25 55 23     0.290    1.100  100.8   64.2    92   24.6 
2026-09-08 00:00 UT   17 41 22.3   -26 15 07     0.293    1.101  100.8   64.1    91   24.6 
2026-09-09 00:00 UT   17 45 37.3   -26 33 59     0.296    1.102  100.8   63.9    91   24.6 
2026-09-10 00:00 UT   17 49 51.7   -26 51 60     0.299    1.103  100.8   63.8    90   24.6 
2026-09-11 00:00 UT   17 54 05.6   -27 09 09     0.302    1.104  100.7   63.7    90   24.7 
2026-09-12 00:00 UT   17 58 18.9   -27 25 29     0.306    1.105  100.7   63.5    89   24.7 


    Terminology:
            
    delta:  distance between minor planet and earth in AU
    radius: distance between minor planet and sun in AU
    magn:   magnitude (brightness) estimate    
    ra:     right ascension in hours (24h = 360deg)
    dec:    declination in degrees
    elong:  elongation in degrees (angle sun-earth-minor planet)    
    phase:  phase angle in degrees (angle sun-minor planet-earth)        
    AU:     Astronomical Unit (mean distance between earth and sun: 149597870.7 km
    

Orbital elements provided by the MPC (Minor Planet Center).
Calculations by a modified version of AAPlus, a C# implementation of the AA+ project by PJ Naughter from the algorithms presented in the book "Astronomical Algorithms" by Jean Meeus.
NGC2000 dso catalog and star labels from VizieR as provided by the Strasbourg astronomical Data Center.
Tycho2 catalog from the ESO archive.